Location: Bh?mavarapp?du
(16.7041°N, 80.6518°E)
Time: 00:31:49
(UTC+00:00)

FALCON 9 DEB - Pass Details

Date: 21 April 2021
Orbit: 364 x 384 km, 53.0° (Epoch: 07 May)

Event Time Altitude Azimuth Distance (km) Brightness Sun altitude
Exits shadow 23:37:58 - 309° (NW) 1,953 6.1 -10.0°
Reaches altitude 10° 23:39:25 10° 302° (WNW) 1,379 5.3 -9.7°
Maximum altitude 23:42:14 33° 236° (SW) 663 3.5 -9.0°
Drops below altitude 10° 23:45:04 10° 170° (S) 1,387 5.6 -8.4°
Sets 23:47:14 0° 160° (SSE) 2,241 6.8 -7.9°
